User: anonymous   Login
Location: Cannifist
(18.2333°N, 63.0167°W)
Time: 02:06:43
(UTC+00:00)
Language:

N. Korean satellite - Orbit

View from above orbital plane
View from above orbital plane
View from above satellite
View from above satellite

Ground track
Ground track

The orbit data is extracted from the following two-line orbital elements,

1 39026U 12072A   21214.45149999  .00001668  00000-0  58246-4 0  9992
2 39026  97.2459 206.2075 0034189 217.8823 142.0013 15.30463382480060
Epoch (UTC): 02 August 2021 10:50:09
Eccentricity: 0.0034189
inclination: 97.2459°
perigee height: 451 km
apogee height: 498 km
right ascension of ascending node: 206.2075°
argument of perigee: 217.8823°
revolutions per day: 15.30463382
mean anomaly at epoch: 142.0013°
orbit number at epoch: 48006

The dashed part of the orbit path shows where the satellite is in the earth's shadow,  

DLR